www.pogodaiklimat.ru

Погода и климат >> Архив погоды >> Россия >> Ивановская область >> Иваново


АРХИВ ПОГОДЫ в Иванове

Время (UTC), дата Ветер
(напр.,м/с)
 
Видим.   Явления Облачность Т
(С)
Тd
(С)
f
(%)
Тe
(С)
Тes
(С)
Комфортность P
(гПа)
Po
(гПа)
Тmin
(С)
Tmax
(С)
R
(мм)
R24
(мм)
S
(см)
21 16.04 ЮВ 1 10 км 10/0
[Ac trans Ci fib]
+7.1 -0.5 58 +7 +7 тепло 1016.0 1000.6
00 17.04 СВ 1 10 км 6/0
[Ac trans Ci fib]
+2.6 -1.8 73 +1 +1 по сезону 1016.3 1000.6
03 17.04 Ю 1 10 км 6/0
[Ci fib]
+0.2 -1.8 86 -2 -1 по сезону 1016.3 1000.8 +0.2
06 17.04 С 1 10 км 4/0
[Ci fib]
+14.6 -3.7 28 +15 +22 тепло 1016.4 1001.4 +0.2
09 17.04 С 2 10 км 4/0
[Ci fib]
+18.8 -4.4 20 +19 +29 тепло 1016.3 1001.5
12 17.04 СЗ 3 10 км 4/0
[Ci fib]
+19.6 -2.9 22 +20 +25 тепло 1015.7 1000.9
15 17.04 С 1 10 км 6/0
[Ac As]
+18.5 -3.0 23 +20 +20 тепло 1014.9 1000.1 +20.1
18 17.04 ЮВ 1 10 км 6/0
[Ac As]
+9.7 +0.9 54 +10 +10 тепло 1015.1 999.9
21 17.04 ЮВ 3 10 км 6/0
[Ac As]
+9.9 -0.5 48 +8 +8 тепло 1014.6 999.4
00 18.04 ЮВ 3 10 км 6/0
[Ac As]
+9.7 -1.3 46 +8 +8 тепло 1013.2 998.0
03 18.04 ЮВ 1 10 км 10/8 900 м
[Sc Ac und]
+9.3 -1.6 46 +9 +9 тепло 1012.3 997.1 +7.6
06 18.04 ЮВ 3 10 км слабый дождь 10/5 800 м
[Sc As op]
+7.7 +3.1 73 +5 +6 по сезону 1011.8 996.5 +7.2
09 18.04 В 3 10 км в посл. час дождь 10/6 800 м
[Sc Ac trans]
+10.0 +3.8 65 +8 +10 тепло 1010.8 995.7
12 18.04 В 3 10 км слабый дождь 10/5 600 м
[Sc Ac trans]
+9.8 +4.6 70 +8 +9 по сезону 1009.9 994.7
15 18.04 В 1 10 км {дождь} 10/5 840 м
[Sc Ac trans]
+9.1 +3.6 68 +9 +9 тепло 1009.3 994.1 +10.9 0.5
18 18.04 В 2 10 км слабый ливневой дождь 10/6 900 м
[Cb calv Ac trans]
+9.3 +2.2 61 +8 +8 тепло 1008.9 993.7
21 18.04 С 1 10 км {ливн. осадки} 10/4 600 м
[Sc Ac trans]
+8.6 +1.3 60 +8 +8 тепло 1007.5 992.3
00 19.04 СВ 3 10 км {ливн. осадки} 10/0
[Ci fib]
+6.5 -3.1 50 +4 +4 по сезону 1006.4 991.1
03 19.04 С 4 10 км 9/4 600 м
[Sc Ac trans Ci fib]
+5.0 -3.6 54 +1 +2 по сезону 1005.3 990.0 +4.9 0.0
06 19.04 СВ 5-10
{10}
10 км 10/3 600 м
[Sc Ac trans Ci fib]
+10.1 -3.4 38 +8 +9 тепло 1004.3 989.2
09 19.04 СВ 5-10
{12}
10 км 10/1 1000 м
[Sc Ac trans Ci fib]
+12.0 -3.6 33 +10 +13 тепло 1004.6 989.6
12 19.04 СВ 5-10
{12}
10 км 10/0
[Ac und]
+13.3 -4.3 29 +12 +13 тепло 1005.0 990.1
15 19.04 С 6-10
{11}
10 км 8/0
[Ac trans Ci fib]
+15.0 -6.5 22 +14 +14 тепло 1005.2 990.4 +15.3
18 19.04 С 4
{11}
10 км 4/0
[Ac trans Ci fib]
+11.1 -6.0 30 +9 +9 тепло 1007.5 992.4
21 19.04 С 4
{10}
10 км ясно +9.4 -5.1 36 +7 +7 тепло 1008.9 993.8
00 20.04 С 3 10 км ясно +5.2 -3.5 53 +2 +2 по сезону 1010.4 995.0
03 20.04 С 3 10 км 3/0
[Ac trans]
+4.1 -3.1 59 +1 +1 по сезону 1012.3 996.8 +2.6
06 20.04 С 5 10 км 4/0
[Ac As]
+7.0 -3.3 48 +4 +6 по сезону 1013.4 998.0
09 20.04 С 5-10
{11}
10 км 6/6 1000 м
[Cu hum]
+9.0 -4.0 40 +6 +9 по сезону 1013.9 998.6
12 20.04 С 5
{12}
10 км 4/4 1000 м
[Cu hum]
+10.1 -6.2 31 +8 +10 по сезону 1013.5 998.3
15 20.04 С 4
{10}
10 км 6/0
[Ci fib]
+9.3 -6.5 32 +7 +8 по сезону 1012.8 997.5 +10.6
18 20.04 СВ 1 10 км 10/0
[Ac trans Ci fib]
+7.0 -6.5 38 +7 +7 тепло 1012.4 997.1
21 20.04 штиль 0 10 км 10/0
[]
+1.9 -1.7 77 +1 +1 по сезону 1011.3 995.7
00 21.04 Ю 2 10 км 10/0
[As trans]
+4.1 -3.8 56 +2 +2 по сезону 1008.4 993.0
03 21.04 Ю 3 4000 м слабый дождь 10/4 600 м
[Sc As op]
+2.4 +0.4 87 -2 -2 прохладно 1004.8 989.3 +0.6 0.8
06 21.04 Ю 5 4000 м слабый ливневой дождь 10/8 600 м
[Cb cap As op]
+4.2 +3.0 92 -1 -1 прохладно 999.6 984.4
09 21.04 Ю 5 10 км в посл. час ливневой дождь 10/6 900 м
[Sc diur, vesp Ac und]
+7.5 +5.8 89 +4 +4 по сезону 994.1 979.1
12 21.04 Ю 5 10 км {ливн. осадки, дождь} 10/6 900 м
[Sc Ac und]
+12.7 +8.0 73 +11 +11 тепло 987.3 972.7
15 21.04 ЮЗ 2
{20}
4000 м гроза, ливневой дождь 10/8 600 м
[Cb calv Ac und]
+9.7 +8.4 92 +8 +8 по сезону 983.6 968.9 +15.5 6
18 21.04 З 3 10 км в посл. час ливневой дождь {гроза} 10/8 600 м
[Cb cap Ac und]
+9.0 +7.6 91 +6 +6 по сезону 981.8 967.0
21 21.04 З 4
{10}
10 км {ливн. осадки} 10/8 600 м
[Cb cap Ac und]
+7.3 +5.6 89 +4 +4 по сезону 981.5 966.6
00 22.04 СЗ 8-13
{15}
2000 м слабый ливневой дождь 10/8 450 м
[Cb cap Ac und]
+1.2 -0.3 90 -6 -6 холодно 985.1 969.8
03 22.04 С 9-15
{17}
10 км в посл. час ливневой снег 10/6 900 м
[Cb cap Ac und]
-0.5 -2.3 88 -9 -9 очень
холодно
989.4 974.0 -0.5 3 1
06 22.04 С 7-11
{15}
10 км слабый ливневой снег 10/10 540 м
[Cb calv]
-0.4 -3.4 80 -7 -7 очень
холодно
992.8 977.3 -0.6
09 22.04 С 7-12
{15}
10 км {ливн. осадки} 10/10 700 м
[Cb calv]
+0.1 -4.0 74 -7 -7 очень
холодно
995.9 980.5
12 22.04 С 7-12
{13}
10 км слабый ливневой снег 10/8 750 м
[Cb calv Ac und]
+0.2 -4.3 72 -7 -6 очень
холодно
999.9 984.4
15 22.04 С 6
{13}
10 км в посл. час ливневой снег 10/4 600 м
[Cb calv Ac und]
+1.3 -4.6 65 -5 -4 очень
холодно
1002.3 986.8 +1.3 0.0
18 22.04 СЗ 5
{10}
10 км {ливн. осадки} 10/0
[Ac und]
+0.7 -4.3 69 -5 -5 очень
холодно
1004.0 988.4
21 22.04 С 5 10 км 3/0
[Ac trans]
+0.5 -7.9 53 -5 -5 очень
холодно
1005.0 989.4
00 23.04 СЗ 4 10 км ясно -1.2 -9.3 54 -6 -6 холодно 1006.5 990.7
03 23.04 СЗ 6 10 км 3/0
[Ci fib]
-1.6 -10.1 52 -8 -8 очень
холодно
1007.8 992.1 -2.2 0.0
06 23.04 С 8-14
{14}
10 км 3/0
[Ci fib]
+1.8 -12.3 34 -4 -3 очень
холодно
1008.8 993.2
09 23.04 СЗ 8-12
{15}
10 км ясно +4.0 -11.7 31 -1 +1 очень
холодно
1009.3 993.9
12 23.04 СЗ 9-13
{14}
10 км ясно +6.2 -11.3 27 +2 +2 холодно 1009.5 994.1
15 23.04 С 6-10
{13}
10 км 3/0
[Ac trans]
+6.3 -10.7 28 +3 +3 прохладно 1009.9 994.5 +6.7
18 23.04 СЗ 2
{10}
10 км ясно -0.6 -7.8 58 -4 -4 очень
холодно
1011.8 996.0

 

Местоположение метеостанции Иваново (Ивановская область, Россия): широта 56.95 долгота 40.97 высота над уровнем моря 126 м.

В архиве по умолчанию представлена погода в Иванове за последнюю неделю. Архивные данные за месяц целиком и за предыдущие месяцы, начиная с января 2011 года, Вы можете получить, выбрав интересующий диапазон дат из раскрывающегося списка и нажав кнопку "Ввод!".


*Определитесь, кто Вы:
робот инопланетянин человек

Внимание! Время в таблицах - всемирное. Для получения местного времени необходимо прибавить поправку, которая в Иванове равна 3 ч.

Смотрите также архив погоды в соседних городах и на ближайших метеорологических станциях:

Погода в Тейково (Ивановская область, Россия) (28 км)
Погода в Шуе (Ивановская область, Россия) (28 км)
Погода в Пешном (Атырауская область, Казахстан) (43 км)
Погода в Приволжске (Ивановская область, Россия) (51 км)
Погода в Плесе (Ивановская область, Россия) (63 км)
Погода в Вичуге (Ивановская область, Россия) (65 км)
Погода в Суздали (Владимирская область, Россия) (67 км)
Погода в Коврове (Владимирская область, Россия) (70 км)
Погода в Гаврилов-Яме (Ярославская область, Россия) (80 км)
Погода в Костроме (Костромская область, Россия) (88 км)

Пояснения к столбцам:

Ветер - указаны скорость ветра в м/с - средняя за 10 мин, порывы в срок и между сроками (в фигурных скобках) и направление, откуда дует ветер: С - северный, СВ - северо-восточный, В - восточный, ЮВ - юго-восточный, Ю - южный, ЮЗ - юго-западный, З - западный, СЗ - северо-западный.
Видимость - горизонтальная дальность видимости в метрах или километрах. При видимости от 1 до 10 км при отсутствии осадков обычно наблюдается дымка, при ухудшении видимости до 1 км и менее - туман. В сухую погоду видимость может ухудшаться дымом, пылью или мглою.
Явления - указаны атмосферные явления, наблюдавшиеся в срок или в последний час перед сроком; фигурными скобками обозначены явления, наблюдавшиеся между сроками (за 1-3 часа до срока); квадратными скобками обозначены град или гололедные отложения с указанием их диаметра в мм.
Облачность - указаны через наклонную черту общая и нижняя облачность в баллах и высота нижней границы облаков в метрах; квадратными скобками обозначены формы облаков: Ci - перистые, Cs - перисто-слоистые, Cc - перисто-кучевые, Ac - высококучевые, As - высокослоистые, Sc - слоисто-кучевые, Ns - слоисто-дождевые, Cu - кучевые, Cb - кучево-дождевые. Подробнее классификацию облаков см. в Атласе облаков (PDF).
T - Температура воздуха - температура, измеренная на высоте 2 м над землей.
Td - Температура точки росы - температура, при понижении до которой содержащийся в воздухе водяной пар достигнет насыщения.
f - Относительная влажность воздуха - влажноcть воздуха, измеренная на высоте 2 м над землей.
Te - Эффективная температура - температура, которую ощущает одетый по сезону человек в тени. Характеристика душности погоды. При расчете учитывается влияние влажности воздуха и скорости ветра на теплоощущения человека.
Tes - Эффективная температура на солнце - температура, которую ощущает человек, с поправкой на солнечный нагрев. Характеристика знойности погоды. Зависит от высоты солнца над горизонтом, облачности и скорости ветра. Ночью, в пасмурную погоду, а также при ветре 12 м/с и более поправка равна нулю.
P - Атмосферное давление - приведенное к уровню моря атмосферное давление.
Po - Атмосферное давление - измеренное на уровне метеостанции атмосферное давление.
Tmin - Минимальная температура - минимум температуры воздуха на высоте 2 м над землей.
Tmax - Максимальная температура - максимум температуры воздуха на высоте 2 м над землей.
R - Количество осадков - Количество выпавших осадков за период времени, мм. При наведении курсора мыши на число - период времени, за который выпало указанное количество осадков.
R24 - Количество осадков - Количество выпавших осадков за 24 часа, мм.
S - Снежный покров - Высота снежного покрова, см. При наведении курсора мыши на число - состояние снежного покрова и степень покрытия местности в баллах.